Paducah, KY

1:36 PM CDT on June 28, 2017 (GMT -0500)
Barkley Regional

Weather History for KPAH - November, 2012

Change the Weather History Date:

Wednesday, November 7, 2012

  Actual Average Record
Temperature  
Mean Temperature 43 °F 52 °F  
Max Temperature 49 °F 63 °F 81 °F (1999)
Min Temperature 36 °F 41 °F 17 °F (1993)
Degree Days  
Heating Degree Days 22 14  
Month to date heating degree days 124 88  
Since 1 July heating degree days 444 355  
Cooling Degree Days 0 0  
Month to date cooling degree days 0 0  
Year to date cooling degree days 1977 1538  
Moisture  
Dew Point 39 °F    
Average Humidity 79    
Maximum Humidity 92    
Minimum Humidity 66    
Precipitation  
Precipitation T in 0.12 in 4.90 in (1996)
Month to date precipitation 0.09 0.88  
Year to date precipitation 24.19 41.07  
Snow  
Snow 0.00 in 0.00 in T in (1992)
Month to date snowfall 0.0 0.0  
Since 1 July snowfall 0.0 0.1  
Since 1 September snowfall 0.0 0.1  
Snow Depth 0.00 in    
Sea Level Pressure  
Sea Level Pressure 30.05 in    
Wind  
Wind Speed 6 mph (NNW)    
Max Wind Speed 17 mph    
Max Gust Speed 22 mph    
Visibility 9 miles    
Events Rain    
T = Trace of Precipitation, MM = Missing Value Source: NWS Daily Summary

Daily Weather History Graph

Daily Weather History Graph

Search for Another Location

Airport or City:

Trip Planner

Search our weather history database for the weather conditions in past years. The results will help you decide how hot, cold, wet, or windy it might be!

Date:

Astronomy

Nov. 07, 2012 Rise Set
Actual Time 6:25 AM CST 4:51 PM CST
Civil Twilight 5:58 AM CST 5:18 PM CST
Nautical Twilight 5:27 AM CST 5:49 PM CST
Astronomical Twilight 4:57 AM CST 6:19 PM CST
Moon No Moon Rise 12:51 PM CST (11/7)
Length of Visible Light 11h 19m
Length of Day
10h 25m
Last Quarter, 43% of the Moon is Illuminated
Nov 7
Last Quarter
Nov 13
New
Nov 20
First Quarter
Nov 28
Full
Dec 6
Last Quarter

Hourly Weather History & Observations

Time (CST) Temp. Windchill Dew Point Humidity Pressure Visibility Wind Dir Wind Speed Gust Speed Precip Events Conditions
12:53 AM 42.1 °F 40.2 °F 39.0 °F 89% 29.94 in 10.0 mi West 3.5 mph - N/A   Overcast
1:53 AM 44.1 °F 40.1 °F 39.9 °F 85% 29.94 in 9.0 mi West 6.9 mph - N/A   Overcast
2:53 AM 44.1 °F 40.8 °F 39.9 °F 85% 29.93 in 9.0 mi West 5.8 mph - N/A   Overcast
3:53 AM 44.1 °F 41.5 °F 41.0 °F 89% 29.93 in 9.0 mi West 4.6 mph - N/A   Overcast
4:53 AM 45.0 °F 43.5 °F 41.0 °F 86% 29.94 in 9.0 mi West 3.5 mph - 0.00 in   Overcast
5:53 AM 45.0 °F 41.8 °F 42.1 °F 90% 29.95 in 9.0 mi WNW 5.8 mph - 0.00 in   Overcast
6:53 AM 44.1 °F 40.8 °F 39.9 °F 85% 29.96 in 7.0 mi WNW 5.8 mph - N/A   Scattered Clouds
7:53 AM 46.0 °F 43.1 °F 41.0 °F 83% 29.98 in 8.0 mi NW 5.8 mph - N/A   Overcast
8:53 AM 46.9 °F - 41.0 °F 80% 29.99 in 10.0 mi NW 6.9 mph - N/A   Overcast
9:08 AM 46.4 °F 42.4 °F 39.2 °F 76% 30.00 in 10.0 mi NNW 8.1 mph 17.3 mph N/A   Overcast
9:19 AM 48.2 °F - 39.2 °F 71% 30.00 in 10.0 mi NNW 13.8 mph 19.6 mph N/A   Mostly Cloudy
9:30 AM 48.2 °F - 39.2 °F 71% 30.00 in 10.0 mi NNW 9.2 mph - N/A   Overcast
9:53 AM 48.0 °F - 39.0 °F 71% 30.01 in 10.0 mi North 10.4 mph 19.6 mph N/A   Overcast
10:28 AM 48.2 °F - 39.2 °F 71% 30.02 in 10.0 mi NNW 11.5 mph - N/A   Overcast
10:53 AM 48.0 °F - 39.0 °F 71% 30.03 in 10.0 mi North 13.8 mph - 0.00 in Rain Light Rain
11:53 AM 46.9 °F - 39.0 °F 74% 30.03 in 10.0 mi NE 12.7 mph - 0.00 in   Overcast
12:10 PM 48.2 °F - 39.2 °F 71% 30.03 in 10.0 mi NNE 11.5 mph - N/A   Overcast
12:53 PM 48.0 °F - 39.0 °F 71% 30.04 in 10.0 mi North 10.4 mph - N/A   Overcast
1:31 PM 46.4 °F 41.9 °F 39.2 °F 76% 30.05 in 10.0 mi North 9.2 mph - N/A   Overcast
1:48 PM 46.4 °F 41.5 °F 39.2 °F 76% 30.05 in 10.0 mi North 10.4 mph - N/A   Overcast
1:53 PM 46.9 °F - 39.0 °F 74% 30.05 in 10.0 mi North 6.9 mph - N/A   Overcast
2:22 PM 46.4 °F 42.4 °F 39.2 °F 76% 30.05 in 10.0 mi North 8.1 mph - N/A   Overcast
2:31 PM 46.4 °F 42.9 °F 39.2 °F 76% 30.06 in 10.0 mi North 6.9 mph - N/A   Overcast
2:53 PM 48.0 °F - 39.0 °F 71% 30.07 in 10.0 mi NNW 8.1 mph - N/A   Overcast
3:53 PM 48.0 °F - 37.0 °F 66% 30.09 in 10.0 mi North 8.1 mph - N/A   Overcast
4:52 PM 48.2 °F - 37.4 °F 66% 30.10 in 10.0 mi NW 4.6 mph - N/A   Overcast
4:53 PM 48.0 °F - 37.0 °F 66% 30.10 in 10.0 mi NW 4.6 mph - N/A   Overcast
5:53 PM 46.0 °F 43.9 °F 37.9 °F 73% 30.12 in 10.0 mi NNW 4.6 mph - N/A   Overcast
6:53 PM 44.1 °F 42.5 °F 37.9 °F 79% 30.14 in 10.0 mi NW 3.5 mph - N/A   Overcast
7:53 PM 45.0 °F 43.5 °F 37.9 °F 76% 30.15 in 10.0 mi WNW 3.5 mph - N/A   Overcast
8:53 PM 45.0 °F 43.5 °F 39.0 °F 80% 30.17 in 10.0 mi NW 3.5 mph - N/A   Overcast
9:53 PM 43.0 °F - 37.9 °F 82% 30.17 in 10.0 mi Calm Calm - N/A   Partly Cloudy
10:53 PM 39.9 °F - 37.0 °F 89% 30.17 in 8.0 mi Calm Calm - N/A   Clear
11:53 PM 37.0 °F - 36.0 °F 96% 30.18 in 6.0 mi Calm Calm - N/A   Clear